Showing default

SPAWAR-CAL-R, 43776

Orbit data source: Space-Track

SPAWAR-CAL-R, 43776 is a payload satellite owned by SPAWAR (US) in SSO that was launched on Mon, 03 Dec 2018 UTC via an FALCON 9 launch vehicle from the Air Force Western Test Range (AFWTR). Payload-class satellites include a variety of spacecraft equipped with specific instruments for various scientific and technological missions. These include communications satellites like Starlink; space stations such as the ISS; scientific satellites like the Hubble; Earth observation satellites from companies like Planet Labs, Umbra, and HawkEye 360; GPS; miniature CubeSats for education and research; and military/defense satellites.

Loading next visibility...
Identifier
43776, 2018-099U
Orbit
SSO
Country
Flag of USUS
Related business
Manufacturer
SPAWAR?
Mission
Operational Defense Calibration
Bus & Motor
CUBESAT 1U, Unknown motor
Mass
1 kg wet, 1 kg dry
Launch date (UTC)
2018-12-03 (7 years ago)
Launch vehicle
FALCON 9
Launch site
Air Force Western Test Range (AFWTR)
Object type
Payload
Rocket body
Debris
Shape & HBR
Box, 0.1 m
Radar Cross Section
0.015 m², Small (<0.1 m²)

Expand to show TLE details & history
Last TLE update: 9 hours ago

TLE from 9 hours ago
0 SPAWAR-CAL-R
1 43776U 18099U   26125.08263442  .00001618  00000-0  11624-3 0  9992
2 43776  97.4401 167.0139 0021024 144.4073 215.8561 15.05471109405519
Epoch: 2026-05-05T01:58Z
TLE epoch observation values (Epoch: 2026-05-05T01:58:59.613Z)
Latitude
-0.00006°
Longitude
-85.69706°
Altitude
564.948 km
Speed
7.572 km/s
True Right ascension
11h 08m 03s
True Declination
0° 00' 00"
Sunlit
Object was in full shadow at epoch
Visualization orbit readout
Latitude
Unknown
Longitude
Unknown
Altitude
Unknown
Speed
Unknown
Apparent Right ascension
Unknown
Apparent Declination
Unknown
Sunlit
N/A
Visualization observer readout
Local Sidereal Time
18:54:22
Azimuth
Unknown
Elevation
Unknown
Doppler factor
Unknown
Orbital elements
Apogee altitude
561.606 km
Perigee altitude
532.487 km
Semi-major axis
6,925.184 km
Eccentricity
0.0021
Inclination
97.4401°
RAAN
167.0139°
Arg. of periapsis
144.4073°
True anomaly
215.71528°
Mean anomaly
215.8561°
Eccentric anomaly
215.78566°
Mean motion
3.76614 °/min
Orbital period
95.59 mins
BSTAR
0.00011624
Loading maneuver chart data...
Computing Atmospheric mass density...
Loading historical data...
Loading historical data...
Loading historical data...
Loading historical data...
Loading historical data...
Loading historical data...
Loading historical data...

Documentation

Showing up to 5 results
|